This is the latest recevied weather packets stored in our database for station/object KX4O-13. If no packets are shown the sender has not sent any weather packets the latest 10 day(s).
| Time | Temp. | Humidity | Pressure | Rain* | Wind** | Luminosity | Snow |
|---|---|---|---|---|---|---|---|
| 1777376165 | 8.89° C | 81% | 1021.6 hPa | 0 mm | - | 42 W/m² | - |
| 1777375865 | 8.89° C | 80% | 1021.6 hPa | 0 mm | - | 42 W/m² | - |
| 1777375565 | 8.89° C | 80% | 1021.7 hPa | 0 mm | - | 32 W/m² | - |
| 1777375265 | 8.89° C | 79% | 1021.9 hPa | 0 mm | - | 25 W/m² | - |
| 1777374965 | 8.89° C | 79% | 1021.7 hPa | 0 mm | - | 25 W/m² | - |
| 1777374665 | 8.89° C | 80% | 1021.4 hPa | 0 mm | - | 25 W/m² | - |
| 1777374365 | 8.33° C | 81% | 1021.2 hPa | 0 mm | - | 21 W/m² | - |
| 1777374065 | 8.33° C | 80% | 1020.9 hPa | 0 mm | - | 25 W/m² | - |
| 1777373765 | 8.33° C | 80% | 1020.6 hPa | 0 mm | - | 26 W/m² | - |
| 1777373465 | 8.33° C | 81% | 1020.3 hPa | 0 mm | - | 25 W/m² | - |
| 1777373165 | 8.33° C | 81% | 1020.4 hPa | 0 mm | - | 14 W/m² | - |
| 1777372865 | 8.33° C | 81% | 1020.5 hPa | 0 mm | - | 11 W/m² | - |
| 1777372565 | 8.33° C | 81% | 1020.5 hPa | 0 mm | - | 7 W/m² | - |
| 1777372265 | 8.33° C | 81% | 1020.7 hPa | 0 mm | - | 7 W/m² | - |
| 1777371965 | 8.33° C | 81% | 1020.8 hPa | 0 mm | - | 5 W/m² | - |
| 1777371665 | 8.33° C | 80% | 1020.9 hPa | 0 mm | - | 0 W/m² | - |
| 1777371365 | 8.33° C | 81% | 1020.9 hPa | 0 mm | - | 0 W/m² | - |
| 1777371065 | 8.33° C | 80% | 1020.8 hPa | 0 mm | - | 0 W/m² | - |
| 1777370765 | 7.78° C | 80% | 1020.7 hPa | 0 mm | - | 0 W/m² | - |
| 1777370465 | 7.78° C | 80% | 1020.6 hPa | 0 mm | - | 0 W/m² | - |
| 1777370165 | 8.33° C | 80% | 1020.7 hPa | 0 mm | - | 0 W/m² | - |
| 1777369865 | 8.33° C | 79% | 1020.8 hPa | 0 mm | - | 0 W/m² | - |
| 1777369565 | 8.33° C | 79% | 1020.8 hPa | 0 mm | - | 0 W/m² | - |
| 1777369265 | 8.33° C | 79% | 1020.9 hPa | 0 mm | - | 0 W/m² | - |
| 1777368965 | 8.33° C | 79% | 1021 hPa | 0 mm | - | 0 W/m² | - |
* Rain latest hour (hover to see other rain measurements)
** Current wind speed in m/s (hover to see current wind gust speed)